Погода в Подольхах

Россия / Белгородская область     50°58′11″N   36°53′52″E
темп.,
°C
ветер,
м/с
пор.,
м/с
влажн.,
%
обл.,
%
осадки,
мм/ч
давл.,
гПа
погр.,
м
11 апреля, вс
вс1100:00+5ссв22580 0.0 102722
03:00+4ссв33625 0.0 102849
06:00+3ссв356415 0.0 102888
09:00+8ссв585130 0.0 1029550
12:00+11св563719 0.0 10281143
15:00+13ссв783398 0.0 10271166
18:00+12св6941100 0.0 1027812
21:00+8св51252100 0.0 1028424
12 апреля, пн
пн1200:00+7св5135998 0.0 1027417
03:00+7св61170100 0.0 1026338
06:00+6св51185100 0.0 1026314
09:00+9всв61085100 0.0 1025369
12:00+15в7964100 0.0 1023615
15:00+19в7947100 0.0 10221118
18:00+19вюв51048100 0.0 1021250
21:00+15вюв4863100 0.0 1023115
13 апреля, вт
вт1300:00+12вюв377181 0.0 1023118
03:00+11в497885 0.0 1023167
06:00+9вюв4118396 0.0 1023216
09:00+12вюв5127672 0.0 1023428
12:00+18юв712459 0.0 10221483
15:00+20юв7103483 0.0 10211982
18:00+18ююв475075 0.0 1020468
21:00+14ююв386393 0.0 1021209
14 апреля, ср
ср1400:00+13ю3961100 0.0 1021367
03:00+11в357194 0.0 1020100
06:00+10в4879100 0.0 1019173
09:00+14юв596198 0.0 1019527
12:00+17юв710495 0.0 10181468
15:00+18ююв6947100 0.0 10172250
18:00+14ю3771100 0.4 1017471
21:00+12юз227893 0.4 101729
15 апреля, чт
чт1500:00+11с2280100 0.0 101630
03:00+11ссв3782100 0.0 1015150
06:00+11св3362100 0.0 101454
09:00+13в4757100 0.0 1013344
12:00+15вюв3349100 0.0 1011875
15:00+15ююв5457100 0.5 1010780
18:00+11ююв3476100 0.5 1010574
21:00+10ю4786100 1.1 1009379